owner,sensor,date,latitude,longitude,vertical_datum,wind_speed,wind_to_direction,wind_speed_of_gust,qcFlag 
ADCP,ioos:station:wmo:42390:1,2013-08-01T00:30:00Z,26.1290,-94.8980,1.0,2.8,98.0,99.0,'11111222,11111222,11144222' 
ADCP,ioos:station:wmo:42390:1,2013-08-01T01:30:00Z,26.1290,-94.8980,1.0,3.1,91.0,99.0,'11111222,11111222,11144222' 
ADCP,ioos:station:wmo:42390:1,2013-08-01T02:30:00Z,26.1290,-94.8980,1.0,3.7,107.0,99.0,'11111222,11111222,11144222' 
ADCP,ioos:station:wmo:42390:1,2013-08-01T03:30:00Z,26.1290,-94.8980,1.0,4.9,115.0,99.0,'11111222,11111222,11144222' 
ADCP,ioos:station:wmo:42390:1,2013-08-01T04:30:00Z,26.1290,-94.8980,1.0,5.5,121.0,99.0,'11111222,11111222,11144222' 
ADCP,ioos:station:wmo:42390:1,2013-08-01T05:30:00Z,26.1290,-94.8980,1.0,5.9,137.0,99.0,'11111222,11111222,11144222' 
ADCP,ioos:station:wmo:42390:1,2013-08-01T06:30:00Z,26.1290,-94.8980,1.0,6.0,162.0,99.0,'11111222,11111222,11144222' 
ADCP,ioos:station:wmo:42390:1,2013-08-01T07:30:00Z,26.1290,-94.8980,1.0,5.7,173.0,99.0,'11111222,11111222,11144222' 
ADCP,ioos:station:wmo:42390:1,2013-08-01T08:30:00Z,26.1290,-94.8980,1.0,5.4,188.0,99.0,'11111222,11111222,11144222' 
ADCP,ioos:station:wmo:42390:1,2013-08-01T09:30:00Z,26.1290,-94.8980,1.0,4.6,192.0,99.0,'11111222,11111222,11144222' 
ADCP,ioos:station:wmo:42390:1,2013-08-01T10:30:00Z,26.1290,-94.8980,1.0,5.9,192.0,99.0,'11111222,11111222,11144222' 
ADCP,ioos:station:wmo:42390:1,2013-08-01T11:30:00Z,26.1290,-94.8980,1.0,5.1,203.0,99.0,'11111222,11111222,11144222' 
ADCP,ioos:station:wmo:42390:1,2013-08-01T12:30:00Z,26.1290,-94.8980,1.0,3.9,208.0,99.0,'11111222,11111222,11144222' 
ADCP,ioos:station:wmo:42390:1,2013-08-01T13:30:00Z,26.1290,-94.8980,1.0,3.5,216.0,99.0,'11111222,11111222,11144222' 
ADCP,ioos:station:wmo:42390:1,2013-08-01T14:30:00Z,26.1290,-94.8980,1.0,2.6,220.0,99.0,'11111222,11111222,11144222' 
ADCP,ioos:station:wmo:42390:1,2013-08-05T15:30:00Z,26.1290,-94.8980,1.0,10.3,241.0,99.0,'11111222,11111222,11144222' 
ADCP,ioos:station:wmo:42390:1,2013-08-05T16:30:00Z,26.1290,-94.8980,1.0,5.8,183.0,99.0,'11111222,11111222,11144222' 
ADCP,ioos:station:wmo:42390:1,2013-08-05T17:30:00Z,26.1290,-94.8980,1.0,6.1,180.0,99.0,'11111222,11111222,11144222' 
ADCP,ioos:station:wmo:42390:1,2013-08-05T18:30:00Z,26.1290,-94.8980,1.0,5.8,172.0,99.0,'11111222,11111222,11144222' 
ADCP,ioos:station:wmo:42390:1,2013-08-05T19:30:00Z,26.1290,-94.8980,1.0,5.7,167.0,99.0,'11111222,11111222,11144222' 
ADCP,ioos:station:wmo:42390:1,2013-08-05T20:30:00Z,26.1290,-94.8980,1.0,5.8,166.0,99.0,'11111222,11111222,11144222' 
ADCP,ioos:station:wmo:42390:1,2013-08-05T21:30:00Z,26.1290,-94.8980,1.0,12.0,262.0,99.0,'11111222,11111222,11144222' 
ADCP,ioos:station:wmo:42390:1,2013-08-05T22:30:00Z,26.1290,-94.8980,1.0,4.6,158.0,99.0,'11111222,11111222,11144222' 
ADCP,ioos:station:wmo:42390:1,2013-08-05T23:30:00Z,26.1290,-94.8980,1.0,5.4,170.0,99.0,'11111222,11111222,11144222' 
ADCP,ioos:station:wmo:42390:1,2013-08-06T00:30:00Z,26.1290,-94.8980,1.0,5.0,170.0,99.0,'11111222,11111222,11144222' 
ADCP,ioos:station:wmo:42390:1,2013-08-06T01:30:00Z,26.1290,-94.8980,1.0,4.6,169.0,99.0,'11111222,11111222,11144222' 
ADCP,ioos:station:wmo:42390:1,2013-08-06T02:30:00Z,26.1290,-94.8980,1.0,4.8,170.0,99.0,'11111222,11111222,11144222' 
ADCP,ioos:station:wmo:42390:1,2013-08-06T03:30:00Z,26.1290,-94.8980,1.0,5.7,162.0,99.0,'11111222,11111222,11144222' 
ADCP,ioos:station:wmo:42390:1,2013-08-06T04:30:00Z,26.1290,-94.8980,1.0,6.0,167.0,99.0,'11111222,11111222,11144222' 
ADCP,ioos:station:wmo:42390:1,2013-08-06T05:30:00Z,26.1290,-94.8980,1.0,6.5,161.0,99.0,'11111222,11111222,11144222' 
ADCP,ioos:station:wmo:42390:1,2013-08-06T06:30:00Z,26.1290,-94.8980,1.0,6.5,162.0,99.0,'11111222,11111222,11144222' 
ADCP,ioos:station:wmo:42390:1,2013-08-06T07:30:00Z,26.1290,-94.8980,1.0,6.2,168.0,99.0,'11111222,11111222,11144222' 
ADCP,ioos:station:wmo:42390:1,2013-08-06T08:30:00Z,26.1290,-94.8980,1.0,7.1,178.0,99.0,'11111222,11111222,11144222' 
ADCP,ioos:station:wmo:42390:1,2013-08-06T09:30:00Z,26.1290,-94.8980,1.0,7.4,181.0,99.0,'11111222,11111222,11144222' 
ADCP,ioos:station:wmo:42390:1,2013-08-06T10:30:00Z,26.1290,-94.8980,1.0,7.2,181.0,99.0,'11111222,11111222,11144222' 
ADCP,ioos:station:wmo:42390:1,2013-08-06T11:30:00Z,26.1290,-94.8980,1.0,7.2,183.0,99.0,'11111222,11111222,11144222' 
ADCP,ioos:station:wmo:42390:1,2013-08-06T12:30:00Z,26.1290,-94.8980,1.0,7.0,190.0,99.0,'11111222,11111222,11144222' 
ADCP,ioos:station:wmo:42390:1,2013-08-06T13:30:00Z,26.1290,-94.8980,1.0,5.7,198.0,99.0,'11111222,11111222,11144222' 
ADCP,ioos:station:wmo:42390:1,2013-08-06T14:30:00Z,26.1290,-94.8980,1.0,5.9,199.0,99.0,'11111222,11111222,11144222' 
ADCP,ioos:station:wmo:42390:1,2013-08-06T15:30:00Z,26.1290,-94.8980,1.0,5.8,201.0,99.0,'11111222,11111222,11144222' 
ADCP,ioos:station:wmo:42390:1,2013-08-06T16:30:00Z,26.1290,-94.8980,1.0,6.0,200.0,99.0,'11111222,11111222,11144222' 
ADCP,ioos:station:wmo:42390:1,2013-08-06T17:30:00Z,26.1290,-94.8980,1.0,5.7,200.0,99.0,'11111222,11111222,11144222' 
ADCP,ioos:station:wmo:42390:1,2013-08-06T18:30:00Z,26.1290,-94.8980,1.0,5.5,196.0,99.0,'11111222,11111222,11144222' 
ADCP,ioos:station:wmo:42390:1,2013-08-06T19:30:00Z,26.1290,-94.8980,1.0,5.9,193.0,99.0,'11111222,11111222,11144222' 
ADCP,ioos:station:wmo:42390:1,2013-08-06T20:30:00Z,26.1290,-94.8980,1.0,5.3,187.0,99.0,'11111222,11111222,11144222' 
ADCP,ioos:station:wmo:42390:1,2013-08-06T21:30:00Z,26.1290,-94.8980,1.0,5.5,175.0,99.0,'11111222,11111222,11144222' 
ADCP,ioos:station:wmo:42390:1,2013-08-06T22:30:00Z,26.1290,-94.8980,1.0,6.3,164.0,99.0,'11111222,11111222,11144222' 
ADCP,ioos:station:wmo:42390:1,2013-08-06T23:30:00Z,26.1290,-94.8980,1.0,6.4,159.0,99.0,'11111222,11111222,11144222' 
ADCP,ioos:station:wmo:42390:1,2013-08-07T00:30:00Z,26.1290,-94.8980,1.0,6.7,154.0,99.0,'11111222,11111222,11144222' 
ADCP,ioos:station:wmo:42390:1,2013-08-07T01:30:00Z,26.1290,-94.8980,1.0,6.7,149.0,99.0,'11111222,11111222,11144222' 
ADCP,ioos:station:wmo:42390:1,2013-08-07T02:30:00Z,26.1290,-94.8980,1.0,6.9,145.0,99.0,'11111222,11111222,11144222' 
ADCP,ioos:station:wmo:42390:1,2013-08-07T03:30:00Z,26.1290,-94.8980,1.0,7.9,149.0,99.0,'11111222,11111222,11144222' 
ADCP,ioos:station:wmo:42390:1,2013-08-07T04:30:00Z,26.1290,-94.8980,1.0,9.1,150.0,99.0,'11111222,11111222,11144222' 
ADCP,ioos:station:wmo:42390:1,2013-08-07T05:30:00Z,26.1290,-94.8980,1.0,9.7,153.0,99.0,'11111222,11111222,11144222' 
ADCP,ioos:station:wmo:42390:1,2013-08-07T06:30:00Z,26.1290,-94.8980,1.0,9.4,160.0,99.0,'11111222,11111222,11144222' 
ADCP,ioos:station:wmo:42390:1,2013-08-07T07:30:00Z,26.1290,-94.8980,1.0,8.6,166.0,99.0,'11111222,11111222,11144222' 
ADCP,ioos:station:wmo:42390:1,2013-08-07T08:30:00Z,26.1290,-94.8980,1.0,8.4,182.0,99.0,'11111222,11111222,11144222' 
ADCP,ioos:station:wmo:42390:1,2013-08-07T09:30:00Z,26.1290,-94.8980,1.0,7.7,192.0,99.0,'11111222,11111222,11144222' 
ADCP,ioos:station:wmo:42390:1,2013-08-07T10:30:00Z,26.1290,-94.8980,1.0,6.1,198.0,99.0,'11111222,11111222,11144222' 
ADCP,ioos:station:wmo:42390:1,2013-08-07T11:30:00Z,26.1290,-94.8980,1.0,6.1,196.0,99.0,'11111222,11111222,11144222' 
ADCP,ioos:station:wmo:42390:1,2013-08-07T12:30:00Z,26.1290,-94.8980,1.0,6.2,194.0,99.0,'11111222,11111222,11144222' 
ADCP,ioos:station:wmo:42390:1,2013-08-07T13:30:00Z,26.1290,-94.8980,1.0,6.2,196.0,99.0,'11111222,11111222,11144222' 
ADCP,ioos:station:wmo:42390:1,2013-08-07T14:30:00Z,26.1290,-94.8980,1.0,6.0,196.0,99.0,'11111222,11111222,11144222' 
ADCP,ioos:station:wmo:42390:1,2013-08-07T15:30:00Z,26.1290,-94.8980,1.0,5.8,199.0,99.0,'11111222,11111222,11144222' 
ADCP,ioos:station:wmo:42390:1,2013-08-07T16:30:00Z,26.1290,-94.8980,1.0,4.9,202.0,99.0,'11111222,11111222,11144222' 
ADCP,ioos:station:wmo:42390:1,2013-08-07T17:30:00Z,26.1290,-94.8980,1.0,5.2,191.0,99.0,'11111222,11111222,11144222' 
ADCP,ioos:station:wmo:42390:1,2013-08-07T18:30:00Z,26.1290,-94.8980,1.0,4.6,181.0,99.0,'11111222,11111222,11144222' 
ADCP,ioos:station:wmo:42390:1,2013-08-07T19:30:00Z,26.1290,-94.8980,1.0,3.9,171.0,99.0,'11111222,11111222,11144222' 
ADCP,ioos:station:wmo:42390:1,2013-08-07T20:30:00Z,26.1290,-94.8980,1.0,3.4,155.0,99.0,'11111222,11111222,11144222' 
ADCP,ioos:station:wmo:42390:1,2013-08-07T21:30:00Z,26.1290,-94.8980,1.0,3.8,145.0,99.0,'11111222,11111222,11144222' 
ADCP,ioos:station:wmo:42390:1,2013-08-07T22:30:00Z,26.1290,-94.8980,1.0,4.2,142.0,99.0,'11111222,11111222,11144222' 
ADCP,ioos:station:wmo:42390:1,2013-08-07T23:30:00Z,26.1290,-94.8980,1.0,5.5,133.0,99.0,'11111222,11111222,11144222' 
ADCP,ioos:station:wmo:42390:1,2013-08-08T00:30:00Z,26.1290,-94.8980,1.0,6.0,131.0,99.0,'11111222,11111222,11144222' 
ADCP,ioos:station:wmo:42390:1,2013-08-08T01:30:00Z,26.1290,-94.8980,1.0,7.1,131.0,99.0,'11111222,11111222,11144222' 
ADCP,ioos:station:wmo:42390:1,2013-08-08T02:30:00Z,26.1290,-94.8980,1.0,7.0,134.0,99.0,'11111222,11111222,11144222' 
ADCP,ioos:station:wmo:42390:1,2013-08-08T03:30:00Z,26.1290,-94.8980,1.0,7.0,138.0,99.0,'11111222,11111222,11144222' 
ADCP,ioos:station:wmo:42390:1,2013-08-08T04:30:00Z,26.1290,-94.8980,1.0,6.6,133.0,99.0,'11111222,11111222,11144222' 
ADCP,ioos:station:wmo:42390:1,2013-08-08T05:30:00Z,26.1290,-94.8980,1.0,6.6,136.0,99.0,'11111222,11111222,11144222' 
ADCP,ioos:station:wmo:42390:1,2013-08-08T06:30:00Z,26.1290,-94.8980,1.0,6.8,156.0,99.0,'11111222,11111222,11144222' 
ADCP,ioos:station:wmo:42390:1,2013-08-08T07:30:00Z,26.1290,-94.8980,1.0,5.4,160.0,99.0,'11111222,11111222,11144222' 
ADCP,ioos:station:wmo:42390:1,2013-08-08T08:30:00Z,26.1290,-94.8980,1.0,5.0,160.0,99.0,'11111222,11111222,11144222' 
ADCP,ioos:station:wmo:42390:1,2013-08-08T09:30:00Z,26.1290,-94.8980,1.0,5.0,154.0,99.0,'11111222,11111222,11144222' 
ADCP,ioos:station:wmo:42390:1,2013-08-08T10:30:00Z,26.1290,-94.8980,1.0,5.8,165.0,99.0,'11111222,11111222,11144222' 
ADCP,ioos:station:wmo:42390:1,2013-08-08T11:30:00Z,26.1290,-94.8980,1.0,5.7,181.0,99.0,'11111222,11111222,11144222' 
ADCP,ioos:station:wmo:42390:1,2013-08-08T12:30:00Z,26.1290,-94.8980,1.0,5.5,183.0,99.0,'11111222,11111222,11144222' 
ADCP,ioos:station:wmo:42390:1,2013-08-08T13:30:00Z,26.1290,-94.8980,1.0,4.9,195.0,99.0,'11111222,11111222,11144222' 
ADCP,ioos:station:wmo:42390:1,2013-08-08T14:30:00Z,26.1290,-94.8980,1.0,3.6,194.0,99.0,'11111222,11111222,11144222' 
ADCP,ioos:station:wmo:42390:1,2013-08-08T15:30:00Z,26.1290,-94.8980,1.0,2.5,190.0,99.0,'11111222,11111222,11144222' 
ADCP,ioos:station:wmo:42390:1,2013-08-08T16:30:00Z,26.1290,-94.8980,1.0,2.2,195.0,99.0,'11111222,11111222,11144222' 
ADCP,ioos:station:wmo:42390:1,2013-08-08T17:30:00Z,26.1290,-94.8980,1.0,1.9,169.0,99.0,'11111222,11111222,11144222' 
ADCP,ioos:station:wmo:42390:1,2013-08-08T18:30:00Z,26.1290,-94.8980,1.0,1.7,130.0,99.0,'11111222,11111222,11144222' 
ADCP,ioos:station:wmo:42390:1,2013-08-08T19:30:00Z,26.1290,-94.8980,1.0,1.7,98.0,99.0,'11111222,11111222,11144222' 
ADCP,ioos:station:wmo:42390:1,2013-08-08T20:30:00Z,26.1290,-94.8980,1.0,1.3,82.0,99.0,'11111222,11111222,11144222' 
ADCP,ioos:station:wmo:42390:1,2013-08-08T21:30:00Z,26.1290,-94.8980,1.0,1.5,67.0,99.0,'11111222,11111222,11144222' 
ADCP,ioos:station:wmo:42390:1,2013-08-08T22:30:00Z,26.1290,-94.8980,1.0,1.9,67.0,99.0,'11111222,11111222,11144222' 
ADCP,ioos:station:wmo:42390:1,2013-08-08T23:30:00Z,26.1290,-94.8980,1.0,2.9,72.0,99.0,'11111222,11111222,11144222' 
ADCP,ioos:station:wmo:42390:1,2013-08-09T00:30:00Z,26.1290,-94.8980,1.0,4.1,89.0,99.0,'11111222,11111222,11144222' 
ADCP,ioos:station:wmo:42390:1,2013-08-09T01:30:00Z,26.1290,-94.8980,1.0,4.5,87.0,99.0,'11111222,11111222,11144222' 
ADCP,ioos:station:wmo:42390:1,2013-08-09T02:30:00Z,26.1290,-94.8980,1.0,4.7,83.0,99.0,'11111222,11111222,11144222' 
ADCP,ioos:station:wmo:42390:1,2013-08-09T03:30:00Z,26.1290,-94.8980,1.0,5.3,93.0,99.0,'11111222,11111222,11144222' 
ADCP,ioos:station:wmo:42390:1,2013-08-09T04:30:00Z,26.1290,-94.8980,1.0,6.8,112.0,99.0,'11111222,11111222,11144222' 
ADCP,ioos:station:wmo:42390:1,2013-08-09T05:30:00Z,26.1290,-94.8980,1.0,6.6,118.0,99.0,'11111222,11111222,11144222' 
ADCP,ioos:station:wmo:42390:1,2013-08-09T06:30:00Z,26.1290,-94.8980,1.0,6.2,119.0,99.0,'11111222,11111222,11144222' 
ADCP,ioos:station:wmo:42390:1,2013-08-09T07:30:00Z,26.1290,-94.8980,1.0,5.2,118.0,99.0,'11111222,11111222,11144222' 
ADCP,ioos:station:wmo:42390:1,2013-08-09T08:30:00Z,26.1290,-94.8980,1.0,3.6,125.0,99.0,'11111222,11111222,11144222' 
ADCP,ioos:station:wmo:42390:1,2013-08-09T09:30:00Z,26.1290,-94.8980,1.0,2.8,121.0,99.0,'11111222,11111222,11144222' 
ADCP,ioos:station:wmo:42390:1,2013-08-09T10:30:00Z,26.1290,-94.8980,1.0,2.4,120.0,99.0,'11111222,11111222,11144222' 
ADCP,ioos:station:wmo:42390:1,2013-08-09T11:30:00Z,26.1290,-94.8980,1.0,1.8,115.0,99.0,'11111222,11111222,11144222' 
ADCP,ioos:station:wmo:42390:1,2013-08-09T12:30:00Z,26.1290,-94.8980,1.0,0.6,47.0,99.0,'11111222,11111222,11144222' 
ADCP,ioos:station:wmo:42390:1,2013-08-09T13:30:00Z,26.1290,-94.8980,1.0,0.4,21.0,99.0,'11111222,11111222,11144222' 
ADCP,ioos:station:wmo:42390:1,2013-08-09T14:30:00Z,26.1290,-94.8980,1.0,2.2,69.0,99.0,'11111222,11111222,11144222' 
ADCP,ioos:station:wmo:42390:1,2013-08-09T15:30:00Z,26.1290,-94.8980,1.0,2.6,39.0,99.0,'11111222,11111222,11144222' 
ADCP,ioos:station:wmo:42390:1,2013-08-09T16:30:00Z,26.1290,-94.8980,1.0,2.1,34.0,99.0,'11111222,11111222,11144222' 
ADCP,ioos:station:wmo:42390:1,2013-08-09T17:30:00Z,26.1290,-94.8980,1.0,3.0,33.0,99.0,'11111222,11111222,11144222' 
ADCP,ioos:station:wmo:42390:1,2013-08-09T18:30:00Z,26.1290,-94.8980,1.0,4.4,50.0,99.0,'11111222,11111222,11144222' 
ADCP,ioos:station:wmo:42390:1,2013-08-09T19:30:00Z,26.1290,-94.8980,1.0,4.4,53.0,99.0,'11111222,11111222,11144222' 
ADCP,ioos:station:wmo:42390:1,2013-08-09T20:30:00Z,26.1290,-94.8980,1.0,5.0,49.0,99.0,'11111222,11111222,11144222' 
ADCP,ioos:station:wmo:42390:1,2013-08-09T21:30:00Z,26.1290,-94.8980,1.0,5.2,56.0,99.0,'11111222,11111222,11144222' 
ADCP,ioos:station:wmo:42390:1,2013-08-09T22:30:00Z,26.1290,-94.8980,1.0,5.7,56.0,99.0,'11111222,11111222,11144222' 
ADCP,ioos:station:wmo:42390:1,2013-08-09T23:30:00Z,26.1290,-94.8980,1.0,6.9,60.0,99.0,'11111222,11111222,11144222' 
ADCP,ioos:station:wmo:42390:1,2013-08-10T00:30:00Z,26.1290,-94.8980,1.0,7.5,73.0,99.0,'11111222,11111222,11144222' 
ADCP,ioos:station:wmo:42390:1,2013-08-10T01:30:00Z,26.1290,-94.8980,1.0,7.5,91.0,99.0,'11111222,11111222,11144222' 
ADCP,ioos:station:wmo:42390:1,2013-08-10T02:30:00Z,26.1290,-94.8980,1.0,6.1,76.0,99.0,'11111222,11111222,11144222' 
ADCP,ioos:station:wmo:42390:1,2013-08-10T03:30:00Z,26.1290,-94.8980,1.0,6.5,83.0,99.0,'11111222,11111222,11144222' 
ADCP,ioos:station:wmo:42390:1,2013-08-10T04:30:00Z,26.1290,-94.8980,1.0,7.2,87.0,99.0,'11111222,11111222,11144222' 
ADCP,ioos:station:wmo:42390:1,2013-08-10T05:30:00Z,26.1290,-94.8980,1.0,6.9,98.0,99.0,'11111222,11111222,11144222' 
ADCP,ioos:station:wmo:42390:1,2013-08-10T06:30:00Z,26.1290,-94.8980,1.0,8.2,115.0,99.0,'11111222,11111222,11144222' 
ADCP,ioos:station:wmo:42390:1,2013-08-10T07:30:00Z,26.1290,-94.8980,1.0,6.8,105.0,99.0,'11111222,11111222,11144222' 
ADCP,ioos:station:wmo:42390:1,2013-08-10T08:30:00Z,26.1290,-94.8980,1.0,6.6,105.0,99.0,'11111222,11111222,11144222' 
ADCP,ioos:station:wmo:42390:1,2013-08-10T09:30:00Z,26.1290,-94.8980,1.0,6.3,102.0,99.0,'11111222,11111222,11144222' 
ADCP,ioos:station:wmo:42390:1,2013-08-10T10:30:00Z,26.1290,-94.8980,1.0,5.7,102.0,99.0,'11111222,11111222,11144222' 
ADCP,ioos:station:wmo:42390:1,2013-08-10T11:30:00Z,26.1290,-94.8980,1.0,5.0,104.0,99.0,'11111222,11111222,11144222' 
ADCP,ioos:station:wmo:42390:1,2013-08-10T12:30:00Z,26.1290,-94.8980,1.0,5.7,95.0,99.0,'11111222,11111222,11144222' 
ADCP,ioos:station:wmo:42390:1,2013-08-10T13:30:00Z,26.1290,-94.8980,1.0,6.0,116.0,99.0,'11111222,11111222,11144222' 
ADCP,ioos:station:wmo:42390:1,2013-08-10T14:30:00Z,26.1290,-94.8980,1.0,5.6,116.0,99.0,'11111222,11111222,11144222' 
ADCP,ioos:station:wmo:42390:1,2013-08-10T15:30:00Z,26.1290,-94.8980,1.0,4.8,117.0,99.0,'11111222,11111222,11144222' 
ADCP,ioos:station:wmo:42390:1,2013-08-10T16:30:00Z,26.1290,-94.8980,1.0,4.6,119.0,99.0,'11111222,11111222,11144222' 
ADCP,ioos:station:wmo:42390:1,2013-08-10T17:30:00Z,26.1290,-94.8980,1.0,3.2,100.0,99.0,'11111222,11111222,11144222' 
ADCP,ioos:station:wmo:42390:1,2013-08-10T18:30:00Z,26.1290,-94.8980,1.0,2.6,48.0,99.0,'11111222,11111222,11144222' 
ADCP,ioos:station:wmo:42390:1,2013-08-10T19:30:00Z,26.1290,-94.8980,1.0,6.5,94.0,99.0,'11111222,11111222,11144222' 
ADCP,ioos:station:wmo:42390:1,2013-08-10T20:30:00Z,26.1290,-94.8980,1.0,3.5,63.0,99.0,'11111222,11111222,11144222' 
ADCP,ioos:station:wmo:42390:1,2013-08-10T21:30:00Z,26.1290,-94.8980,1.0,4.0,42.0,99.0,'11111222,11111222,11144222' 
ADCP,ioos:station:wmo:42390:1,2013-08-10T22:30:00Z,26.1290,-94.8980,1.0,5.0,55.0,99.0,'11111222,11111222,11144222' 
ADCP,ioos:station:wmo:42390:1,2013-08-10T23:30:00Z,26.1290,-94.8980,1.0,5.6,43.0,99.0,'11111222,11111222,11144222' 
ADCP,ioos:station:wmo:42390:1,2013-08-11T00:30:00Z,26.1290,-94.8980,1.0,5.5,58.0,99.0,'11111222,11111222,11144222' 
ADCP,ioos:station:wmo:42390:1,2013-08-11T01:30:00Z,26.1290,-94.8980,1.0,6.7,76.0,99.0,'11111222,11111222,11144222' 
ADCP,ioos:station:wmo:42390:1,2013-08-11T02:30:00Z,26.1290,-94.8980,1.0,8.0,91.0,99.0,'11111222,11111222,11144222' 
ADCP,ioos:station:wmo:42390:1,2013-08-11T03:30:00Z,26.1290,-94.8980,1.0,8.1,107.0,99.0,'11111222,11111222,11144222' 
ADCP,ioos:station:wmo:42390:1,2013-08-11T04:30:00Z,26.1290,-94.8980,1.0,7.5,104.0,99.0,'11111222,11111222,11144222' 
ADCP,ioos:station:wmo:42390:1,2013-08-11T05:30:00Z,26.1290,-94.8980,1.0,7.8,110.0,99.0,'11111222,11111222,11144222' 
ADCP,ioos:station:wmo:42390:1,2013-08-11T06:30:00Z,26.1290,-94.8980,1.0,8.4,124.0,99.0,'11111222,11111222,11144222' 
ADCP,ioos:station:wmo:42390:1,2013-08-11T07:30:00Z,26.1290,-94.8980,1.0,7.8,135.0,99.0,'11111222,11111222,11144222' 
ADCP,ioos:station:wmo:42390:1,2013-08-11T08:30:00Z,26.1290,-94.8980,1.0,7.0,139.0,99.0,'11111222,11111222,11144222' 
ADCP,ioos:station:wmo:42390:1,2013-08-11T09:30:00Z,26.1290,-94.8980,1.0,5.6,145.0,99.0,'11111222,11111222,11144222' 
ADCP,ioos:station:wmo:42390:1,2013-08-11T10:30:00Z,26.1290,-94.8980,1.0,4.7,154.0,99.0,'11111222,11111222,11144222' 
ADCP,ioos:station:wmo:42390:1,2013-08-11T11:30:00Z,26.1290,-94.8980,1.0,3.0,134.0,99.0,'11111222,11111222,11144222' 
ADCP,ioos:station:wmo:42390:1,2013-08-11T12:30:00Z,26.1290,-94.8980,1.0,3.9,130.0,99.0,'11111222,11111222,11144222' 
ADCP,ioos:station:wmo:42390:1,2013-08-11T13:30:00Z,26.1290,-94.8980,1.0,5.2,124.0,99.0,'11111222,11111222,11144222' 
ADCP,ioos:station:wmo:42390:1,2013-08-11T14:30:00Z,26.1290,-94.8980,1.0,7.1,126.0,99.0,'11111222,11111222,11144222' 
ADCP,ioos:station:wmo:42390:1,2013-08-11T15:30:00Z,26.1290,-94.8980,1.0,5.1,118.0,99.0,'11111222,11111222,11144222' 
ADCP,ioos:station:wmo:42390:1,2013-08-11T16:30:00Z,26.1290,-94.8980,1.0,5.4,136.0,99.0,'11111222,11111222,11144222' 
ADCP,ioos:station:wmo:42390:1,2013-08-11T17:30:00Z,26.1290,-94.8980,1.0,7.2,137.0,99.0,'11111222,11111222,11144222' 
ADCP,ioos:station:wmo:42390:1,2013-08-11T18:30:00Z,26.1290,-94.8980,1.0,5.4,146.0,99.0,'11111222,11111222,11144222' 
ADCP,ioos:station:wmo:42390:1,2013-08-11T19:30:00Z,26.1290,-94.8980,1.0,6.2,153.0,99.0,'11111222,11111222,11144222' 
ADCP,ioos:station:wmo:42390:1,2013-08-11T20:30:00Z,26.1290,-94.8980,1.0,4.5,189.0,99.0,'11111222,11111222,11144222' 
ADCP,ioos:station:wmo:42390:1,2013-08-11T21:30:00Z,26.1290,-94.8980,1.0,2.5,105.0,99.0,'11111222,11111222,11144222' 
ADCP,ioos:station:wmo:42390:1,2013-08-11T22:30:00Z,26.1290,-94.8980,1.0,0.8,56.0,99.0,'11111222,11111222,11144222' 
ADCP,ioos:station:wmo:42390:1,2013-08-11T23:30:00Z,26.1290,-94.8980,1.0,0.8,42.0,99.0,'11111222,11111222,11144222' 
ADCP,ioos:station:wmo:42390:1,2013-08-12T00:30:00Z,26.1290,-94.8980,1.0,2.7,83.0,99.0,'11111222,11111222,11144222' 
ADCP,ioos:station:wmo:42390:1,2013-08-12T01:30:00Z,26.1290,-94.8980,1.0,3.2,71.0,99.0,'11111222,11111222,11144222' 
ADCP,ioos:station:wmo:42390:1,2013-08-12T02:30:00Z,26.1290,-94.8980,1.0,3.6,73.0,99.0,'11111222,11111222,11144222' 
ADCP,ioos:station:wmo:42390:1,2013-08-12T03:30:00Z,26.1290,-94.8980,1.0,4.6,94.0,99.0,'11111222,11111222,11144222' 
ADCP,ioos:station:wmo:42390:1,2013-08-12T04:30:00Z,26.1290,-94.8980,1.0,4.7,100.0,99.0,'11111222,11111222,11144222' 
ADCP,ioos:station:wmo:42390:1,2013-08-12T05:30:00Z,26.1290,-94.8980,1.0,6.6,118.0,99.0,'11111222,11111222,11144222' 
ADCP,ioos:station:wmo:42390:1,2013-08-12T06:30:00Z,26.1290,-94.8980,1.0,7.7,125.0,99.0,'11111222,11111222,11144222' 
ADCP,ioos:station:wmo:42390:1,2013-08-12T07:30:00Z,26.1290,-94.8980,1.0,7.1,136.0,99.0,'11111222,11111222,11144222' 
ADCP,ioos:station:wmo:42390:1,2013-08-12T08:30:00Z,26.1290,-94.8980,1.0,6.4,143.0,99.0,'11111222,11111222,11144222' 
ADCP,ioos:station:wmo:42390:1,2013-08-12T09:30:00Z,26.1290,-94.8980,1.0,5.9,138.0,99.0,'11111222,11111222,11144222' 
ADCP,ioos:station:wmo:42390:1,2013-08-12T10:30:00Z,26.1290,-94.8980,1.0,5.4,149.0,99.0,'11111222,11111222,11144222' 
ADCP,ioos:station:wmo:42390:1,2013-08-12T11:30:00Z,26.1290,-94.8980,1.0,4.1,134.0,99.0,'11111222,11111222,11144222' 
ADCP,ioos:station:wmo:42390:1,2013-08-12T12:30:00Z,26.1290,-94.8980,1.0,3.6,127.0,99.0,'11111222,11111222,11144222' 
ADCP,ioos:station:wmo:42390:1,2013-08-12T13:30:00Z,26.1290,-94.8980,1.0,3.6,123.0,99.0,'11111222,11111222,11144222' 
ADCP,ioos:station:wmo:42390:1,2013-08-12T14:30:00Z,26.1290,-94.8980,1.0,5.0,126.0,99.0,'11111222,11111222,11144222' 
ADCP,ioos:station:wmo:42390:1,2013-08-12T15:30:00Z,26.1290,-94.8980,1.0,4.9,139.0,99.0,'11111222,11111222,11144222' 
ADCP,ioos:station:wmo:42390:1,2013-08-12T16:30:00Z,26.1290,-94.8980,1.0,4.1,128.0,99.0,'11111222,11111222,11144222' 
ADCP,ioos:station:wmo:42390:1,2013-08-12T17:30:00Z,26.1290,-94.8980,1.0,4.4,129.0,99.0,'11111222,11111222,11144222' 
ADCP,ioos:station:wmo:42390:1,2013-08-12T18:30:00Z,26.1290,-94.8980,1.0,4.2,121.0,99.0,'11111222,11111222,11144222' 
ADCP,ioos:station:wmo:42390:1,2013-08-12T19:30:00Z,26.1290,-94.8980,1.0,4.7,122.0,99.0,'11111222,11111222,11144222' 
ADCP,ioos:station:wmo:42390:1,2013-08-12T20:30:00Z,26.1290,-94.8980,1.0,4.6,119.0,99.0,'11111222,11111222,11144222' 
ADCP,ioos:station:wmo:42390:1,2013-08-12T21:30:00Z,26.1290,-94.8980,1.0,4.2,118.0,99.0,'11111222,11111222,11144222' 
ADCP,ioos:station:wmo:42390:1,2013-08-12T22:30:00Z,26.1290,-94.8980,1.0,3.2,106.0,99.0,'11111222,11111222,11144222' 
ADCP,ioos:station:wmo:42390:1,2013-08-12T23:30:00Z,26.1290,-94.8980,1.0,3.4,93.0,99.0,'11111222,11111222,11144222' 
ADCP,ioos:station:wmo:42390:1,2013-08-13T00:30:00Z,26.1290,-94.8980,1.0,3.2,79.0,99.0,'11111222,11111222,11144222' 
ADCP,ioos:station:wmo:42390:1,2013-08-13T01:30:00Z,26.1290,-94.8980,1.0,4.2,86.0,99.0,'11111222,11111222,11144222' 
ADCP,ioos:station:wmo:42390:1,2013-08-13T02:30:00Z,26.1290,-94.8980,1.0,5.3,90.0,99.0,'11111222,11111222,11144222' 
ADCP,ioos:station:wmo:42390:1,2013-08-13T03:30:00Z,26.1290,-94.8980,1.0,6.4,103.0,99.0,'11111222,11111222,11144222' 
ADCP,ioos:station:wmo:42390:1,2013-08-13T04:30:00Z,26.1290,-94.8980,1.0,6.9,109.0,99.0,'11111222,11111222,11144222' 
ADCP,ioos:station:wmo:42390:1,2013-08-13T05:30:00Z,26.1290,-94.8980,1.0,7.3,114.0,99.0,'11111222,11111222,11144222' 
ADCP,ioos:station:wmo:42390:1,2013-08-13T06:30:00Z,26.1290,-94.8980,1.0,7.2,115.0,99.0,'11111222,11111222,11144222' 
ADCP,ioos:station:wmo:42390:1,2013-08-13T07:30:00Z,26.1290,-94.8980,1.0,7.8,126.0,99.0,'11111222,11111222,11144222' 
ADCP,ioos:station:wmo:42390:1,2013-08-13T08:30:00Z,26.1290,-94.8980,1.0,7.3,129.0,99.0,'11111222,11111222,11144222' 
ADCP,ioos:station:wmo:42390:1,2013-08-13T09:30:00Z,26.1290,-94.8980,1.0,6.7,134.0,99.0,'11111222,11111222,11144222' 
ADCP,ioos:station:wmo:42390:1,2013-08-13T10:30:00Z,26.1290,-94.8980,1.0,5.9,144.0,99.0,'11111222,11111222,11144222' 
ADCP,ioos:station:wmo:42390:1,2013-08-13T11:30:00Z,26.1290,-94.8980,1.0,6.4,142.0,99.0,'11111222,11111222,11144222' 